SCP
0 0 0 0 0 0 0 0 0 0 0 0 0 0 0 0 0 0 0 0 0 0 0 0 1 1 1 1 1 0 0 0 0 0 0 0 0 0 0 0 0 0 0
0 0 0 0 0 0 0 0 0 0 0 0 0 0 0 0 0 0 0 0 0 0 0 0 1 1 1 1 0 0 0 0 0 0 0 0 0 0 0 0 0 0 0
0 0 0 0 0 0 0 0 0 0 0 0 0 0 0 0 0 0 0 0 0 0 0 1 1 1 1 1 1 0 0 1 0 0 0 0 0 0 0 0 0 0 0
1 1 0 0 0 0 0 0 0 0 0 0 0 0 0 0 0 0 0 0 0 0 0 1 1 1 1 1 1 1 1 1 1 0 0 0 0 0 0 0 0 0 0
1 1 0 0 0 0 0 0 0 0 0 0 0 0 0 0 0 0 0 0 0 0 0 0 0 1 1 1 1 1 1 1 0 1 0 0 0 0 0 0 0 0 0
1 1 0 0 0 0 0 0 0 0 0 0 0 0 0 0 0 0 0 0 0 0 0 0 0 0 0 1 1 1 1 1 1 1 0 0 0 0 0 0 0 0 0
2 1 1 1 0 0 1 1 1 1 0 0 0 0 0 0 0 0 0 0 0 -0 -0 0 0 0 0 0 1 1 1 1 1 0 0 0 0 0 0 0 0 0 0
1 2 2 1 1 1 0 1 1 1 0 0 0 0 0 0 0 0 0 0 -0 -0 -0 0 0 0 0 0 0 1 1 1 1 1 1 0 0 0 0 0 0 0 0
2 2 2 3 0 -0 2 1 2 1 2 0 0 0 0 0 0 0 0 0 0 -0 -0 0 0 0 0 0 0 1 1 1 1 1 1 0 0 0 0 0 0 0 0
3 3 3 3 1 2 2 1 2 1 0 1 0 0 0 0 0 0 0 0 0 0 -0 0 0 0 1 1 0 0 0 0 0 1 1 1 0 0 0 0 0 0 0
2 2 3 4 3 2 2 1 2 2 1 2 1 0 0 0 0 0 0 0 0 0 -0 -0 0 0 1 1 1 0 0 0 0 0 0 0 0 0 0 0 0 0 0
2 2 2 2 1 1 2 2 2 2 1 1 2 1 1 1 1 1 0 0 0 0 -0 -0 0 0 0 1 0 0 0 0 0 0 0 0 0 0 0 0 0 0 0
1 1 2 2 2 1 2 3 2 1 0 -0 1 1 0 0 1 0 0 0 0 0 -0 -0 0 0 0 0 0 0 0 0 0 0 0 0 0 0 0 0 0 0 0
0 0 0 1 2 2 2 1 1 1 1 1 1 1 1 1 1 0 0 0 0 1 0 -0 -0 0 0 0 0 0 0 0 0 0 0 0 0 0 0 0 0 0 0
0 0 0 0 0 2 2 1 1 1 1 1 1 1 1 1 1 1 1 1 1 1 0 0 0 0 0 0 0 0 0 0 0 0 0 0 0 0 0 0 0 0 0
0 0 0 0 0 1 1 1 1 1 1 1 1 1 1 1 1 1 1 1 0 1 0 0 0 0 0 0 0 0 0 0 0 0 0 0 0 0 0 0 0 0 0
0 0 1 1 1 1 0 0 1 1 1 1 1 1 1 1 1 1 1 0 0 1 0 0 0 0 0 0 0 0 0 0 0 0 0 0 0 0 0 0 0 0 0
0 0 0 0 0 0 0 0 0 0 0 0 0 1 1 1 1 1 1 1 1 1 1 0 0 0 0 0 0 0 0 0 0 0 0 0 0 0 0 0 0 0 0
0 0 0 0 0 0 0 0 0 0 0 0 0 1 1 1 1 1 0 1 1 1 -0 1 0 0 0 0 0 0 0 0 0 0 0 0 0 0 0 0 0 0 0
0 0 0 0 0 0 0 0 0 0 0 0 0 0 0 0 0 1 1 1 0 -1 0 0 0 0 0 0 0 0 0 0 0 0 0 0 0 0 0 0 0 0 0
0 0 0 0 0 0 0 0 0 0 0 0 0 0 0 0 0 0 0 1 1 1 1 0 0 0 0 0 0 0 0 0 0 0 0 0 0 0 0 0 0 0 0
0 0 0 0 0 0 0 0 0 0 0 0 0 0 0 0 0 0 0 0 0 1 0 0 0 0 0 0 0 0 0 0 0 0 0 0 0 0 0 0 0 0 0
0 0 0 0 0 0 0 0 0 0 0 0 0 0 0 0 0 0 0 0 0 0 0 0 0 0 0 0 0 0 0 0 0 0 0 0 0 0 0 0 0 0 0
0 0 0 0 0 0 0 0 -0 0 0 0 0 0 0 0 0 0 0 0 0 0 0 0 0 0 0 0 0 0 0 0 0 0 0 0 0 0 0 0 0 0 0
0 0 0 0 0 0 -0 -0 -0 -0 -0 -0 -0 -0 0 0 0 0 0 0 0 0 0 0 0 0 0 0 0 0 0 0 0 0 0 0 0 0 0 0 0 0 0
0 0 0 0 0 0 -0 -0 -0 -0 -0 -0 0 0 0 0 0 0 0 0 0 0 0 0 0 0 0 0 0 0 0 0 0 0 0 0 0 0 0 0 0 0 0
Wind_Speed_500mb
56 52 48 42 37 31 25 21 18 13 10 11 9 9 9 13 18 15 17 18 16 15 15 12 15 18 17 15 19 21 23 26 29 30 28 25 26 26 25 23 24 29 33
60 55 51 48 43 37 29 23 22 22 20 20 17 17 15 17 22 28 27 24 19 18 22 19 16 17 19 17 20 22 23 25 29 31 31 27 27 30 31 29 28 27 33
64 62 59 56 49 43 36 33 29 27 26 26 23 21 23 24 28 30 32 34 30 25 26 26 22 18 19 18 19 24 25 24 27 32 33 30 29 30 33 33 33 31 32
67 63 61 60 54 48 43 41 37 36 33 32 30 28 28 27 31 35 42 41 36 32 35 34 29 21 21 21 21 24 24 23 22 27 35 33 31 32 34 36 37 35 34
68 67 67 63 60 54 49 47 45 44 42 38 35 33 32 30 31 33 45 35 30 33 34 35 34 26 22 23 23 21 25 23 22 24 27 33 34 37 36 38 38 38 37
64 69 69 69 67 63 57 52 52 42 44 37 40 40 40 35 35 32 25 24 31 34 38 41 31 28 26 27 23 26 32 30 28 28 28 28 34 36 37 38 39 39 39
62 56 58 73 72 68 60 50 40 38 37 38 40 42 38 37 33 19 30 20 23 40 52 58 49 37 30 28 27 27 34 37 34 29 29 29 29 34 39 43 43 41 40
82 75 60 50 61 65 68 52 33 37 30 37 35 37 29 38 31 30 27 36 58 65 67 63 47 44 38 28 25 29 30 33 38 35 32 32 31 33 39 44 44 44 42
60 64 78 87 95 71 69 59 37 28 29 39 39 30 14 13 46 43 43 42 73 77 71 72 66 49 37 32 26 29 28 31 35 35 35 35 32 31 32 38 45 44 45
63 66 72 78 84 74 82 70 42 32 26 34 35 44 37 26 25 38 36 45 46 59 69 75 70 48 47 41 30 32 33 32 34 35 33 33 34 31 31 33 42 45 47
59 66 59 67 71 69 70 59 78 41 55 51 42 34 44 51 48 39 49 38 67 71 79 80 82 64 48 39 38 34 35 36 39 36 33 34 34 32 33 35 38 43 46
62 59 66 71 78 79 76 78 71 68 91 104 88 76 73 77 67 67 72 72 72 83 77 81 80 67 47 31 33 35 42 38 38 36 34 34 33 34 35 39 37 41 42
65 64 61 61 62 58 54 56 56 75 74 93 88 89 96 89 92 86 85 87 85 80 86 76 76 68 33 27 43 33 37 40 40 39 36 36 34 34 36 40 42 41 37
45 55 65 67 64 61 57 56 52 52 69 67 82 77 80 82 86 86 84 83 72 63 60 68 85 60 45 35 38 37 35 41 41 38 38 33 36 36 39 41 40 38 34
44 41 39 43 50 49 47 51 54 57 67 74 68 69 71 72 72 72 67 64 62 49 35 55 70 55 43 44 50 37 39 41 41 36 35 35 38 41 44 43 39 36 34
33 35 33 33 35 41 39 35 34 36 40 39 46 50 54 52 54 49 46 45 43 48 26 47 61 51 53 51 52 39 36 39 35 33 35 38 44 46 46 42 37 34 33
22 25 25 25 24 22 21 21 22 25 31 35 36 43 48 47 50 46 47 54 59 54 41 53 63 50 63 54 49 37 33 30 30 32 35 43 48 47 41 35 34 31 30
19 21 20 16 13 13 15 22 26 30 33 37 41 38 43 46 39 39 49 61 59 54 55 58 61 56 58 52 43 37 33 32 32 33 38 44 43 35 31 28 28 27 28
27 24 23 19 16 18 23 21 22 26 28 31 35 37 41 42 46 43 44 51 56 53 70 58 61 57 56 45 37 38 37 36 34 35 39 36 28 23 24 26 24 23 24
40 35 31 24 21 15 11 15 20 25 29 32 34 37 42 42 42 46 43 47 50 70 61 60 60 60 55 46 39 38 43 40 34 36 36 30 25 25 25 26 25 24 24
48 41 36 33 28 21 24 29 34 39 43 44 40 41 43 42 43 45 43 45 44 61 57 58 59 57 58 53 43 41 43 39 35 35 32 25 24 23 24 26 27 28 26
53 48 44 39 33 31 34 40 46 52 56 55 51 48 47 44 42 44 48 46 45 50 58 60 61 52 58 56 42 44 43 40 32 32 28 24 21 21 25 27 29 31 31
60 55 49 44 41 40 43 50 55 61 65 64 59 57 54 50 45 46 49 51 52 49 50 56 63 44 42 40 46 46 49 35 29 26 21 20 19 21 23 26 27 29 31
57 51 47 46 47 50 55 61 60 60 61 60 58 57 53 50 49 48 49 51 50 51 49 50 45 28 27 33 43 36 27 26 28 27 24 20 16 17 20 25 27 29 28
54 55 56 56 57 59 63 65 63 63 62 61 59 54 47 47 46 47 46 51 52 50 50 39 35 26 27 37 34 35 37 35 34 31 28 23 20 18 19 22 22 24 28
63 63 66 67 68 69 71 72 69 70 65 63 63 62 51 46 42 42 46 52 53 45 41 29 27 22 27 41 37 37 32 35 35 28 28 28 24 18 11 13 17 24 23
Wind_Direction_500mb
213 213 216 218 222 229 239 249 247 241 222 215 239 263 287 306 315 319 316 309 310 314 311 315 318 323 334 302 280 289 288 288 264 257 258 263 270 270 267 258 252 248 249
218 221 225 228 227 230 237 247 246 249 249 247 254 276 294 301 307 315 312 310 313 318 314 303 298 309 326 317 302 289 294 298 270 258 258 261 269 265 264 263 268 255 246
226 226 225 230 235 239 239 244 247 253 260 264 265 279 286 293 304 311 313 316 316 320 319 301 286 287 295 300 308 295 284 289 283 263 262 263 267 272 267 266 265 270 252
234 237 239 240 239 240 248 253 256 259 260 267 275 277 281 291 307 320 318 316 309 310 318 304 283 278 285 290 293 307 284 284 285 271 264 266 269 271 271 267 263 269 258
238 239 244 248 249 245 244 250 256 260 262 268 276 279 282 289 301 323 340 331 314 308 323 319 286 272 276 280 282 285 289 280 284 284 278 268 268 270 271 266 264 264 264
254 253 251 250 248 248 243 243 250 258 271 270 278 279 284 287 301 323 3 358 352 336 339 339 315 295 290 273 271 272 280 284 283 290 276 284 276 273 276 271 266 260 261
247 262 261 255 254 256 250 244 251 255 267 282 289 288 293 293 303 321 341 349 356 355 355 343 324 316 312 279 268 273 272 276 281 281 277 290 282 276 277 276 272 264 259
242 240 246 262 265 259 256 238 228 251 272 282 288 298 305 295 305 312 343 6 356 349 339 338 331 327 314 298 282 279 271 273 278 282 287 290 283 280 278 275 271 266 260
236 240 247 242 259 263 259 247 225 250 279 285 288 285 304 299 311 307 318 290 284 301 324 324 321 321 307 302 290 282 276 270 273 276 286 288 293 283 277 275 271 269 262
242 246 239 234 238 224 235 248 234 235 248 269 290 289 284 289 300 308 313 328 325 295 327 330 323 309 314 298 290 281 275 278 277 269 279 286 292 287 290 286 275 270 264
245 243 242 241 242 238 256 247 255 253 253 263 271 277 288 288 289 275 289 291 314 314 320 321 324 313 306 289 283 282 283 280 271 271 276 284 288 292 295 294 278 273 267
243 246 241 239 243 250 256 249 256 253 255 266 260 258 260 271 281 282 285 287 294 301 309 315 321 322 310 294 284 292 279 281 273 265 272 280 282 291 291 293 279 278 270
237 239 238 239 241 237 256 261 263 254 258 268 264 252 269 279 282 288 284 286 289 288 286 302 316 321 309 305 295 296 283 282 273 266 267 275 275 291 292 290 282 278 266
236 237 239 238 237 244 250 251 253 251 250 257 257 263 266 273 276 282 282 282 282 280 276 297 307 309 318 324 308 299 291 279 275 266 265 272 275 287 292 287 281 271 258
236 230 229 233 235 237 245 248 249 251 255 256 259 262 267 268 273 277 281 286 275 272 286 283 293 305 305 288 297 289 292 271 272 261 265 275 284 290 291 282 275 267 251
225 228 224 220 221 229 238 243 249 255 255 258 257 260 262 268 273 274 280 284 286 278 278 287 293 299 285 291 287 284 284 271 263 260 269 279 284 288 287 278 268 262 246
205 205 203 207 215 221 233 244 251 255 256 258 261 262 264 270 274 273 275 271 284 286 290 299 300 296 285 283 280 278 274 260 260 266 279 285 289 287 281 271 262 253 238
221 221 218 223 243 262 277 278 274 277 280 276 274 274 274 277 276 275 268 269 279 276 287 300 298 291 284 278 265 267 256 255 263 274 286 291 291 281 268 259 254 243 230
224 231 237 246 263 278 295 293 293 289 288 285 280 277 272 271 272 271 271 274 262 266 294 288 289 286 281 266 259 258 250 251 263 277 289 296 293 267 257 250 243 235 226
228 235 234 245 260 275 291 313 313 314 309 307 296 288 285 281 277 273 276 269 252 267 283 281 281 276 271 261 252 248 251 254 262 280 290 291 276 262 248 241 233 231 232
236 226 233 245 254 260 281 290 300 309 312 308 301 294 288 284 278 272 278 277 273 266 274 279 274 269 262 258 254 250 248 254 258 274 281 283 273 255 241 236 235 236 235
223 228 241 247 251 267 275 285 297 302 305 305 302 294 290 286 281 274 266 271 274 274 269 271 271 261 262 260 260 258 247 244 250 270 270 272 265 250 242 238 240 242 238
227 232 236 245 255 264 274 285 294 299 300 300 298 295 289 285 284 285 277 274 270 267 268 263 266 267 261 264 263 255 242 241 255 262 264 266 266 253 245 241 245 244 238
232 240 248 252 257 267 278 289 295 298 299 298 296 294 290 278 280 282 285 284 281 274 271 259 255 242 243 268 255 246 247 245 246 247 250 259 267 266 264 249 252 247 244
248 253 260 266 270 274 281 288 295 300 299 297 294 292 283 269 272 278 286 285 280 274 278 259 223 224 248 258 240 227 219 227 231 241 244 251 264 270 265 266 270 254 244
260 262 267 271 275 278 281 288 296 302 295 293 292 289 282 267 269 277 280 280 274 268 273 201 202 234 258 237 220 219 228 233 232 242 246 245 257 261 274 266 270 263 255
Wind_Speed_850mb
56 52 48 42 37 31 25 21 18 13 10 11 9 9 9 13 18 15 17 18 16 15 15 12 15 18 17 15 19 21 23 26 29 30 28 25 26 26 25 23 24 29 33
60 55 51 48 43 37 29 23 22 22 20 20 17 17 15 17 22 28 27 24 19 18 22 19 16 17 19 17 20 22 23 25 29 31 31 27 27 30 31 29 28 27 33
64 62 59 56 49 43 36 33 29 27 26 26 23 21 23 24 28 30 32 34 30 25 26 26 22 18 19 18 19 24 25 24 27 32 33 30 29 30 33 33 33 31 32
67 63 61 60 54 48 43 41 37 36 33 32 30 28 28 27 31 35 42 41 36 32 35 34 29 21 21 21 21 24 24 23 22 27 35 33 31 32 34 36 37 35 34
68 67 67 63 60 54 49 47 45 44 42 38 35 33 32 30 31 33 45 35 30 33 34 35 34 26 22 23 23 21 25 23 22 24 27 33 34 37 36 38 38 38 37
64 69 69 69 67 63 57 52 52 42 44 37 40 40 40 35 35 32 25 24 31 34 38 41 31 28 26 27 23 26 32 30 28 28 28 28 34 36 37 38 39 39 39
62 56 58 73 72 68 60 50 40 38 37 38 40 42 38 37 33 19 30 20 23 40 52 58 49 37 30 28 27 27 34 37 34 29 29 29 29 34 39 43 43 41 40
82 75 60 50 61 65 68 52 33 37 30 37 35 37 29 38 31 30 27 36 58 65 67 63 47 44 38 28 25 29 30 33 38 35 32 32 31 33 39 44 44 44 42
60 64 78 87 95 71 69 59 37 28 29 39 39 30 14 13 46 43 43 42 73 77 71 72 66 49 37 32 26 29 28 31 35 35 35 35 32 31 32 38 45 44 45
63 66 72 78 84 74 82 70 42 32 26 34 35 44 37 26 25 38 36 45 46 59 69 75 70 48 47 41 30 32 33 32 34 35 33 33 34 31 31 33 42 45 47
59 66 59 67 71 69 70 59 78 41 55 51 42 34 44 51 48 39 49 38 67 71 79 80 82 64 48 39 38 34 35 36 39 36 33 34 34 32 33 35 38 43 46
62 59 66 71 78 79 76 78 71 68 91 104 88 76 73 77 67 67 72 72 72 83 77 81 80 67 47 31 33 35 42 38 38 36 34 34 33 34 35 39 37 41 42
65 64 61 61 62 58 54 56 56 75 74 93 88 89 96 89 92 86 85 87 85 80 86 76 76 68 33 27 43 33 37 40 40 39 36 36 34 34 36 40 42 41 37
45 55 65 67 64 61 57 56 52 52 69 67 82 77 80 82 86 86 84 83 72 63 60 68 85 60 45 35 38 37 35 41 41 38 38 33 36 36 39 41 40 38 34
44 41 39 43 50 49 47 51 54 57 67 74 68 69 71 72 72 72 67 64 62 49 35 55 70 55 43 44 50 37 39 41 41 36 35 35 38 41 44 43 39 36 34
33 35 33 33 35 41 39 35 34 36 40 39 46 50 54 52 54 49 46 45 43 48 26 47 61 51 53 51 52 39 36 39 35 33 35 38 44 46 46 42 37 34 33
22 25 25 25 24 22 21 21 22 25 31 35 36 43 48 47 50 46 47 54 59 54 41 53 63 50 63 54 49 37 33 30 30 32 35 43 48 47 41 35 34 31 30
19 21 20 16 13 13 15 22 26 30 33 37 41 38 43 46 39 39 49 61 59 54 55 58 61 56 58 52 43 37 33 32 32 33 38 44 43 35 31 28 28 27 28
27 24 23 19 16 18 23 21 22 26 28 31 35 37 41 42 46 43 44 51 56 53 70 58 61 57 56 45 37 38 37 36 34 35 39 36 28 23 24 26 24 23 24
40 35 31 24 21 15 11 15 20 25 29 32 34 37 42 42 42 46 43 47 50 70 61 60 60 60 55 46 39 38 43 40 34 36 36 30 25 25 25 26 25 24 24
48 41 36 33 28 21 24 29 34 39 43 44 40 41 43 42 43 45 43 45 44 61 57 58 59 57 58 53 43 41 43 39 35 35 32 25 24 23 24 26 27 28 26
53 48 44 39 33 31 34 40 46 52 56 55 51 48 47 44 42 44 48 46 45 50 58 60 61 52 58 56 42 44 43 40 32 32 28 24 21 21 25 27 29 31 31
60 55 49 44 41 40 43 50 55 61 65 64 59 57 54 50 45 46 49 51 52 49 50 56 63 44 42 40 46 46 49 35 29 26 21 20 19 21 23 26 27 29 31
57 51 47 46 47 50 55 61 60 60 61 60 58 57 53 50 49 48 49 51 50 51 49 50 45 28 27 33 43 36 27 26 28 27 24 20 16 17 20 25 27 29 28
54 55 56 56 57 59 63 65 63 63 62 61 59 54 47 47 46 47 46 51 52 50 50 39 35 26 27 37 34 35 37 35 34 31 28 23 20 18 19 22 22 24 28
63 63 66 67 68 69 71 72 69 70 65 63 63 62 51 46 42 42 46 52 53 45 41 29 27 22 27 41 37 37 32 35 35 28 28 28 24 18 11 13 17 24 23
Wind_Direction_850mb
213 213 216 218 222 229 239 249 247 241 222 215 239 263 287 306 315 319 316 309 310 314 311 315 318 323 334 302 280 289 288 288 264 257 258 263 270 270 267 258 252 248 249
218 221 225 228 227 230 237 247 246 249 249 247 254 276 294 301 307 315 312 310 313 318 314 303 298 309 326 317 302 289 294 298 270 258 258 261 269 265 264 263 268 255 246
226 226 225 230 235 239 239 244 247 253 260 264 265 279 286 293 304 311 313 316 316 320 319 301 286 287 295 300 308 295 284 289 283 263 262 263 267 272 267 266 265 270 252
234 237 239 240 239 240 248 253 256 259 260 267 275 277 281 291 307 320 318 316 309 310 318 304 283 278 285 290 293 307 284 284 285 271 264 266 269 271 271 267 263 269 258
238 239 244 248 249 245 244 250 256 260 262 268 276 279 282 289 301 323 340 331 314 308 323 319 286 272 276 280 282 285 289 280 284 284 278 268 268 270 271 266 264 264 264
254 253 251 250 248 248 243 243 250 258 271 270 278 279 284 287 301 323 3 358 352 336 339 339 315 295 290 273 271 272 280 284 283 290 276 284 276 273 276 271 266 260 261
247 262 261 255 254 256 250 244 251 255 267 282 289 288 293 293 303 321 341 349 356 355 355 343 324 316 312 279 268 273 272 276 281 281 277 290 282 276 277 276 272 264 259
242 240 246 262 265 259 256 238 228 251 272 282 288 298 305 295 305 312 343 6 356 349 339 338 331 327 314 298 282 279 271 273 278 282 287 290 283 280 278 275 271 266 260
236 240 247 242 259 263 259 247 225 250 279 285 288 285 304 299 311 307 318 290 284 301 324 324 321 321 307 302 290 282 276 270 273 276 286 288 293 283 277 275 271 269 262
242 246 239 234 238 224 235 248 234 235 248 269 290 289 284 289 300 308 313 328 325 295 327 330 323 309 314 298 290 281 275 278 277 269 279 286 292 287 290 286 275 270 264
245 243 242 241 242 238 256 247 255 253 253 263 271 277 288 288 289 275 289 291 314 314 320 321 324 313 306 289 283 282 283 280 271 271 276 284 288 292 295 294 278 273 267
243 246 241 239 243 250 256 249 256 253 255 266 260 258 260 271 281 282 285 287 294 301 309 315 321 322 310 294 284 292 279 281 273 265 272 280 282 291 291 293 279 278 270
237 239 238 239 241 237 256 261 263 254 258 268 264 252 269 279 282 288 284 286 289 288 286 302 316 321 309 305 295 296 283 282 273 266 267 275 275 291 292 290 282 278 266
236 237 239 238 237 244 250 251 253 251 250 257 257 263 266 273 276 282 282 282 282 280 276 297 307 309 318 324 308 299 291 279 275 266 265 272 275 287 292 287 281 271 258
236 230 229 233 235 237 245 248 249 251 255 256 259 262 267 268 273 277 281 286 275 272 286 283 293 305 305 288 297 289 292 271 272 261 265 275 284 290 291 282 275 267 251
225 228 224 220 221 229 238 243 249 255 255 258 257 260 262 268 273 274 280 284 286 278 278 287 293 299 285 291 287 284 284 271 263 260 269 279 284 288 287 278 268 262 246
205 205 203 207 215 221 233 244 251 255 256 258 261 262 264 270 274 273 275 271 284 286 290 299 300 296 285 283 280 278 274 260 260 266 279 285 289 287 281 271 262 253 238
221 221 218 223 243 262 277 278 274 277 280 276 274 274 274 277 276 275 268 269 279 276 287 300 298 291 284 278 265 267 256 255 263 274 286 291 291 281 268 259 254 243 230
224 231 237 246 263 278 295 293 293 289 288 285 280 277 272 271 272 271 271 274 262 266 294 288 289 286 281 266 259 258 250 251 263 277 289 296 293 267 257 250 243 235 226
228 235 234 245 260 275 291 313 313 314 309 307 296 288 285 281 277 273 276 269 252 267 283 281 281 276 271 261 252 248 251 254 262 280 290 291 276 262 248 241 233 231 232
236 226 233 245 254 260 281 290 300 309 312 308 301 294 288 284 278 272 278 277 273 266 274 279 274 269 262 258 254 250 248 254 258 274 281 283 273 255 241 236 235 236 235
223 228 241 247 251 267 275 285 297 302 305 305 302 294 290 286 281 274 266 271 274 274 269 271 271 261 262 260 260 258 247 244 250 270 270 272 265 250 242 238 240 242 238
227 232 236 245 255 264 274 285 294 299 300 300 298 295 289 285 284 285 277 274 270 267 268 263 266 267 261 264 263 255 242 241 255 262 264 266 266 253 245 241 245 244 238
232 240 248 252 257 267 278 289 295 298 299 298 296 294 290 278 280 282 285 284 281 274 271 259 255 242 243 268 255 246 247 245 246 247 250 259 267 266 264 249 252 247 244
248 253 260 266 270 274 281 288 295 300 299 297 294 292 283 269 272 278 286 285 280 274 278 259 223 224 248 258 240 227 219 227 231 241 244 251 264 270 265 266 270 254 244
260 262 267 271 275 278 281 288 296 302 295 293 292 289 282 267 269 277 280 280 274 268 273 201 202 234 258 237 220 219 228 233 232 242 246 245 257 261 274 266 270 263 255